Location: Tierz
(42.1336°N, 0.3549°W)
Time: 16:09:18
(UTC+00:00)

SL-4 R/B - Pass Details

Date: 29 October 2020
Orbit: 427 x 665 km, 51.6° (Epoch: 23 November)

Event Time Altitude Azimuth Distance (km) Brightness Sun altitude
Rises 17:28:04 0° 301° (WNW) 2,421 6.1 -6.1°
Reaches altitude 10° 17:30:36 10° 320° (NW) 1,577 4.7 -6.6°
Maximum altitude 17:33:11 19° 7° (N) 1,175 3.5 -7.0°
Drops below altitude 10° 17:35:51 10° 54° (NE) 1,648 3.9 -7.5°
Enters shadow 17:36:16 - 58° (ENE) 1,772 4.0 -7.6°
